• Em Portugal
  • Lista de países
  • Para 7 dias
  • Temperatura da água
  • Mapas de satélite
  • Mapa do tempo
  • Widgets de tempo
  • user-avatar
    Iniciar Sessão

    Previsão horária em Soroki

    Hoje, 23 Junho, Sábado

    Tempo Temperatura Precipitação Vento Pressão Humidade
    00:00 +16°C° 0 mm 5 m/s 746 mmHg 82%
    01:00 +17°C° 0 mm 4 m/s 746 mmHg 81%
    02:00 +16°C° 0 mm 3 m/s 745 mmHg 79%
    03:00 +15°C° 0 mm 4 m/s 745 mmHg 80%
    04:00 +14°C° 0 mm 4 m/s 745 mmHg 80%
    05:00 +14°C° 0 mm 4 m/s 745 mmHg 80%
    06:00 +14°C° 0,1 mm 4 m/s 745 mmHg 81%
    07:00 +14°C° 0,1 mm 5 m/s 745 mmHg 82%
    08:00 +14°C° 0,1 mm 5 m/s 746 mmHg 83%
    09:00 +15°C° 0,1 mm 5 m/s 746 mmHg 81%
    10:00 +15°C° 0,1 mm 6 m/s 746 mmHg 79%
    11:00 +16°C° 0,1 mm 6 m/s 746 mmHg 77%
    12:00 +16°C° 0,1 mm 5 m/s 746 mmHg 76%
    13:00 +16°C° 0,1 mm 5 m/s 746 mmHg 76%
    14:00 +16°C° 0,1 mm 5 m/s 746 mmHg 75%
    15:00 +16°C° 0,2 mm 5 m/s 746 mmHg 74%
    16:00 +16°C° 0,2 mm 6 m/s 746 mmHg 73%
    17:00 +17°C° 0,2 mm 6 m/s 746 mmHg 72%
    18:00 +15°C° 0,1 mm 5 m/s 746 mmHg 76%
    19:00 +14°C° 0,1 mm 5 m/s 747 mmHg 80%
    20:00 +13°C° 0,1 mm 4 m/s 747 mmHg 84%
    21:00 +12°C° 0 mm 4 m/s 747 mmHg 86%
    22:00 +12°C° 0 mm 4 m/s 747 mmHg 88%
    23:00 +11°C° 0 mm 3 m/s 748 mmHg 91%

    Amanhã, 24 Junho, Domingo

    Tempo Temperatura Precipitação Vento Pressão Humidade
    00:00 +10°C° 0 mm 3 m/s 748 mmHg 91%
    01:00 +10°C° 0 mm 3 m/s 748 mmHg 92%
    02:00 +10°C° 0 mm 2 m/s 748 mmHg 93%
    03:00 +9°C° 0 mm 2 m/s 749 mmHg 93%
    04:00 +9°C° 0 mm 2 m/s 749 mmHg 93%
    05:00 +9°C° 0 mm 2 m/s 749 mmHg 93%
    06:00 +11°C° 0 mm 3 m/s 749 mmHg 86%
    07:00 +13°C° 0 mm 3 m/s 749 mmHg 79%
    08:00 +15°C° 0 mm 4 m/s 749 mmHg 72%
    09:00 +17°C° 0 mm 4 m/s 749 mmHg 66%
    10:00 +18°C° 0 mm 4 m/s 749 mmHg 61%
    11:00 +19°C° 0 mm 5 m/s 749 mmHg 55%
    12:00 +20°C° 0 mm 4 m/s 749 mmHg 54%
    13:00 +20°C° 0 mm 4 m/s 749 mmHg 53%
    14:00 +21°C° 0 mm 4 m/s 749 mmHg 51%
    15:00 +21°C° 0,1 mm 3 m/s 749 mmHg 52%
    16:00 +21°C° 0,1 mm 3 m/s 749 mmHg 52%
    17:00 +21°C° 0,1 mm 2 m/s 749 mmHg 53%
    18:00 +19°C° 0 mm 2 m/s 749 mmHg 58%
    19:00 +19°C° 0 mm 1 m/s 749 mmHg 63%
    20:00 +18°C° 0 mm 1 m/s 749 mmHg 68%
    21:00 +16°C° 0,2 mm 1 m/s 749 mmHg 71%
    22:00 +15°C° 0,2 mm 1 m/s 750 mmHg 74%
    23:00 +15°C° 0,2 mm 1 m/s 750 mmHg 77%

    Depois de amanhã, 25 Junho, Segunda-feira

    Tempo Temperatura Precipitação Vento Pressão Humidade
    00:00 +15°C° 0,2 mm 1 m/s 750 mmHg 79%
    01:00 +14°C° 0,2 mm 1 m/s 750 mmHg 80%
    02:00 +14°C° 0,2 mm 1 m/s 750 mmHg 82%
    03:00 +14°C° 0,1 mm 1 m/s 750 mmHg 83%
    04:00 +14°C° 0,1 mm 1 m/s 750 mmHg 84%
    05:00 +14°C° 0,1 mm 1 m/s 750 mmHg 85%
    06:00 +15°C° 0 mm 1 m/s 750 mmHg 79%
    07:00 +17°C° 0 mm 2 m/s 751 mmHg 74%
    08:00 +18°C° 0 mm 2 m/s 751 mmHg 69%
    09:00 +20°C° 0,2 mm 2 m/s 751 mmHg 64%
    10:00 +21°C° 0,2 mm 2 m/s 751 mmHg 60%
    11:00 +23°C° 0,2 mm 2 m/s 751 mmHg 56%
    12:00 +24°C° 0,2 mm 2 m/s 751 mmHg 54%
    13:00 +24°C° 0,2 mm 2 m/s 751 mmHg 52%
    14:00 +25°C° 0,2 mm 2 m/s 751 mmHg 50%
    15:00 +25°C° 0,1 mm 1 m/s 751 mmHg 51%
    16:00 +25°C° 0,1 mm 1 m/s 751 mmHg 52%
    17:00 +24°C° 0,1 mm 1 m/s 751 mmHg 53%
    18:00 +23°C° 0,1 mm 1 m/s 751 mmHg 57%
    19:00 +22°C° 0,1 mm 1 m/s 751 mmHg 61%
    20:00 +21°C° 0,1 mm 1 m/s 751 mmHg 65%
    21:00 +20°C° 0,2 mm 1 m/s 751 mmHg 68%
    22:00 +19°C° 0,2 mm 1 m/s 752 mmHg 71%
    23:00 +17°C° 0,2 mm 2 m/s 752 mmHg 74%

    26 Junho, Terça-feira

    Tempo Temperatura Precipitação Vento Pressão Humidade
    00:00 +18°C° 0,1 mm 1 m/s 752 mmHg 75%
    01:00 +18°C° 0,1 mm 1 m/s 752 mmHg 76%
    02:00 +16°C° 0,1 mm 1 m/s 752 mmHg 77%
    03:00 +16°C° 0 mm 1 m/s 752 mmHg 78%
    04:00 +16°C° 0 mm 1 m/s 752 mmHg 79%
    05:00 +15°C° 0 mm 1 m/s 752 mmHg 80%
    06:00 +17°C° 0 mm 2 m/s 752 mmHg 75%
    07:00 +19°C° 0 mm 2 m/s 752 mmHg 70%
    08:00 +21°C° 0 mm 2 m/s 752 mmHg 65%
    09:00 +23°C° 0,2 mm 2 m/s 752 mmHg 60%
    10:00 +24°C° 0,2 mm 2 m/s 752 mmHg 54%
    11:00 +25°C° 0,2 mm 1 m/s 752 mmHg 49%
    12:00 +25°C° 0,1 mm 1 m/s 752 mmHg 49%
    13:00 +26°C° 0,1 mm 1 m/s 752 mmHg 49%
    14:00 +26°C° 0,1 mm 1 m/s 751 mmHg 49%
    15:00 +26°C° 0,2 mm 2 m/s 751 mmHg 51%
    16:00 +25°C° 0,2 mm 2 m/s 751 mmHg 53%
    17:00 +25°C° 0,2 mm 2 m/s 751 mmHg 55%
    18:00 +24°C° 0 mm 2 m/s 751 mmHg 62%
    19:00 +21°C° 0 mm 3 m/s 751 mmHg 68%
    20:00 +20°C° 0 mm 3 m/s 751 mmHg 75%
    21:00 +19°C° 0 mm 3 m/s 751 mmHg 78%
    22:00 +18°C° 0 mm 2 m/s 751 mmHg 80%
    23:00 +17°C° 0 mm 2 m/s 751 mmHg 83%

    27 Junho, Quarta-feira

    Tempo Temperatura Precipitação Vento Pressão Humidade
    00:00 +17°C° 0 mm 2 m/s 751 mmHg 85%
    01:00 +17°C° 0 mm 2 m/s 751 mmHg 86%
    02:00 +16°C° 0 mm 2 m/s 750 mmHg 88%
    03:00 +16°C° 0 mm 3 m/s 750 mmHg 89%
    04:00 +16°C° 0 mm 3 m/s 750 mmHg 90%
    05:00 +16°C° 0 mm 3 m/s 750 mmHg 91%
    06:00 +18°C° 0 mm 3 m/s 750 mmHg 85%
    07:00 +19°C° 0 mm 4 m/s 750 mmHg 80%
    08:00 +21°C° 0 mm 4 m/s 750 mmHg 74%
    09:00 +22°C° 0,1 mm 4 m/s 750 mmHg 68%
    10:00 +25°C° 0,1 mm 4 m/s 749 mmHg 63%
    11:00 +26°C° 0,1 mm 4 m/s 749 mmHg 57%
    12:00 +26°C° 0 mm 5 m/s 749 mmHg 56%
    13:00 +27°C° 0 mm 5 m/s 748 mmHg 55%
    14:00 +27°C° 0 mm 5 m/s 748 mmHg 54%
    15:00 +27°C° 0 mm 5 m/s 748 mmHg 56%
    16:00 +27°C° 0 mm 5 m/s 748 mmHg 58%
    17:00 +27°C° 0 mm 5 m/s 747 mmHg 60%
    18:00 +25°C° 0,4 mm 4 m/s 747 mmHg 68%
    19:00 +23°C° 0,4 mm 4 m/s 747 mmHg 75%
    20:00 +21°C° 0,4 mm 3 m/s 747 mmHg 82%
    21:00 +21°C° 0,9 mm 3 m/s 747 mmHg 84%
    22:00 +20°C° 0,9 mm 3 m/s 747 mmHg 87%
    23:00 +20°C° 0,9 mm 3 m/s 747 mmHg 89%

    28 Junho, Quinta-feira

    Tempo Temperatura Precipitação Vento Pressão Humidade
    00:00 +19°C° 1,6 mm 3 m/s 747 mmHg 91%
    01:00 +19°C° 1,6 mm 3 m/s 746 mmHg 93%
    02:00 +19°C° 1,6 mm 3 m/s 746 mmHg 94%
    03:00 +19°C° 1,3 mm 3 m/s 746 mmHg 95%
    04:00 +19°C° 1,3 mm 3 m/s 746 mmHg 95%
    05:00 +19°C° 1,3 mm 4 m/s 745 mmHg 96%
    06:00 +19°C° 0,6 mm 4 m/s 745 mmHg 95%
    07:00 +19°C° 0,6 mm 4 m/s 745 mmHg 93%
    08:00 +20°C° 0,6 mm 5 m/s 745 mmHg 92%
    09:00 +20°C° 0,2 mm 4 m/s 745 mmHg 90%
    10:00 +21°C° 0,2 mm 4 m/s 745 mmHg 88%
    11:00 +22°C° 0,2 mm 4 m/s 744 mmHg 85%
    12:00 +22°C° 0,3 mm 4 m/s 744 mmHg 84%
    13:00 +24°C° 0,3 mm 3 m/s 744 mmHg 82%
    14:00 +24°C° 0,3 mm 3 m/s 744 mmHg 81%
    15:00 +24°C° 1 mm 3 m/s 744 mmHg 81%
    16:00 +25°C° 1 mm 3 m/s 744 mmHg 82%
    17:00 +25°C° 1 mm 3 m/s 744 mmHg 82%
    18:00 +24°C° 0,9 mm 2 m/s 744 mmHg 85%
    19:00 +23°C° 0,9 mm 2 m/s 744 mmHg 88%
    20:00 +22°C° 0,9 mm 1 m/s 744 mmHg 90%
    21:00 +21°C° 0,1 mm 2 m/s 744 mmHg 92%
    22:00 +20°C° 0,1 mm 2 m/s 744 mmHg 93%
    23:00 +19°C° 0,1 mm 2 m/s 744 mmHg 95%
    Mostrar mais